Weather in Bystrukha

Russia / Tyumen Oblast     56°25′19″N   70°37′30″E
temp.,
°C
wind,
m/s
gust,
m/s
humid.,
%
clouds,
%
prec.,
mm/h
press.,
hPa
HPBL,
m
23 april, fri
fri2323:00+2sse512564 0.0 1042289
02:00+1sse513575 0.0 1041324
05:000s51459100 0.0 1042350
08:00+4s8124781 0.0 1041537
11:00+7s7104293 0.0 1041790
14:00+10s7840100 0.0 10401040
17:00+10ssw6739100 0.0 10391176
20:00+7sse4947100 0.0 1038196
24 april, sat
sat2423:00+5sse51248100 0.0 1037307
02:00+4sse51253100 0.0 1036320
05:00+3sse51156100 0.0 1036298
08:00+5s61047100 0.0 1035471
11:00+9s6834100 0.0 10331186
14:00+10s6829100 0.0 10321590
17:00+10s5734100 0.0 10301512
20:00+7sse3743100 0.0 1030196
25 april, sun
sun2523:00+6se41147100 0.0 1028272
02:00+6se51150100 0.0 1027339
05:00+5se51155100 0.0 1026323
08:00+7se61251100 0.0 1025479
11:00+11se71037100 0.0 1023961
14:00+13se81135100 0.0 10211962
17:00+13se61033100 0.0 10202287
20:00+10ese71541100 0.0 1018422
26 april, mon
mon2623:00+8sse4856100 0.0 1017195
02:00+7sse4987100 0.1 1016242
05:00+7s41080100 0.1 1015283
08:00+10sw697473 0.4 1014776
11:00+13wsw911395 0.6 10142074
14:00+13w9133428 0.5 10152709
17:00+14w813317 0.5 10153505
20:00+9w510420 0.0 1018217
27 april, tue
tue2723:00+7wsw3849100 0.0 1019139
02:00+6sw355598 0.0 101976
05:00+6ssw3756100 0.0 1019125
08:00+9ssw41051100 0.0 1018404
11:00+11sw6846100 0.0 1017997
14:00+10sse6773100 0.3 1015978
17:00+7se5993100 3.9 1011518
20:00+7ese3698100 5.5 1008199